Regional Weather Roundup
Issued by NWS

Home | Current Version | Previous Version | Graphics & Text | Print | Product List | Glossary Off
Versions: 1 2 3 4 5 6 7 8 9 10 11 12 13 14 15 16 17 18 19 20 21 22 23 24 25 26 27 28 29 30 31 32 33 34 35 36 37 38 39 40 41 42 43 44 45 46 47 48 49 50

000
ASUS43 KTOP 231708
RWRKS

WEATHER ROUNDUP FOR KANSAS
NATIONAL WEATHER SERVICE GOODLAND KS
1100 AM CST FRI FEB 23 2018

NOTE:  "FAIR" INDICATES FEW OR NO CLOUDS BELOW 12,000 FEET WITH NO
SIGNIFICANT WEATHER AND/OR OBSTRUCTIONS TO VISIBILITY.

KSZ001>006-013>018-027>032-041>047-231800-
NORTHWEST KANSAS

CITY           SKY/WX    TMP DP  RH WIND       PRES   REMARKS
GOODLAND       SUNNY     30  21  69 E6        30.16S
HAYS           CLOUDY    28  26  92 CALM      30.28S
HILL CITY      CLOUDY    25  25 100 NW3       30.27S
RUSSELL        CLOUDY    31  27  85 CALM      30.27R
$$

KSZ061>065-074>080-084>089-231800-
SOUTHWEST KANSAS

CITY           SKY/WX    TMP DP  RH WIND       PRES   REMARKS
DODGE CITY     FOG       29  27  92 E9        30.22F VSB 1/2
ELKHART        CLOUDY    29  29 100 E7        30.14F FOG
GARDEN CITY    CLOUDY    28  27  96 SE9       30.19F
GREAT BEND     CLOUDY    29  27  92 E8        30.28S
LIBERAL        FOG       30  29  96 E10       30.19F VSB 1/2 WCI  21
PRATT          CLOUDY    30  27  87 NE5       30.25F
$$

KSZ066>073-081>083-090>101-231800-
SOUTHEAST KANSAS

CITY           SKY/WX    TMP DP  RH WIND       PRES   REMARKS
CHANUTE        CLOUDY    39  33  79 N6        30.28F
COFFEYVILLE    CLOUDY    39  37  92 NE8       30.28F
HUTCHINSON     CLOUDY    31  29  92 NE6       30.28F
MEDICINE LODGE   N/A     33  31  92 NE8       30.24F
NEWTON         CLOUDY    29  27  92 NE5       30.28F
PARSONS        CLOUDY    38  36  92 N7        30.28F
WICHITA INTL   CLOUDY    33  31  92 NE9       30.26F
WICHITA JABRA  CLOUDY    32  30  92 NE7       30.26F
WICHITA MCCONL CLOUDY    32  31  95 NE5       30.26F
WINFIELD       CLOUDY    35  34  96 E8        30.28F
$$

KSZ007>012-019>026-033>040-048>060-102>105-231800-
NORTHEAST KANSAS

CITY           SKY/WX    TMP DP  RH WIND       PRES   REMARKS
CONCORDIA      SUNNY     28  23  81 NW5       30.30R
EMPORIA        CLOUDY    32  28  85 NE6       30.29S
LAWRENCE       CLOUDY    34  30  85 N5        30.31F
MANHATTAN      CLOUDY    32  26  78 CALM      30.32R
MARYSVILLE     SUNNY     32  28  86 N6        30.30F
OLATHE IND     CLOUDY    33  30  88 N6        30.31F
OLATHE EXE     CLOUDY    32  30  92 NW3       30.30F
SALINA         MOSUNNY   35  28  75 N7        30.31S
TOPEKA BILLARD CLOUDY    35  29  78 N5        30.31F
TOPEKA FORBES  CLOUDY    34  28  79 NE6       30.30F
$$




USA.gov is the U.S. government's official web portal to all federal, state and local government web resources and services.